Location: Crescent
(42.8242°N, 73.7329°W)
Time: 17:34:10
(UTC+00:00)

Vanguard 1 Rocket - Pass Details

Date: 19 February 2026
Orbit: 653 x 4214 km, 34.3° (Epoch: 8 March)

Event Time Altitude Azimuth Distance (km) Brightness Sun altitude
Rises 15:17:41 0° 180° (S) 3,582 11.3 30.4°
Reaches altitude 10° 15:22:08 10° 148° (SSE) 3,154 11.8 30.8°
Maximum altitude 15:24:45 12° 128° (SE) 3,340 11.6 31.0°
Drops below altitude 10° 15:27:50 10° 109° (ESE) 3,884 11.4 31.3°
Sets 15:35:22 0° 83° (E) 5,844 11.8 32.0°
